GW0268 Weather Reports


Display with metric or nautical units.
time (UTC)temp
F
wind
direction
speed
MPH
gust
MPH
rain 1hr
in
rain 24hr
in
rain mn
in
humidity
%
barometer
mb
20260504184613 71 247 6.0 6.0 0.00 0.00 0.00 49 990.5
20260504183613 71 239 9.0 14.0 0.00 0.00 0.00 47 990.3
20260504182613 72 228 10.0 15.0 0.00 0.00 0.00 47 990.2
20260504180614 70 236 8.0 13.0 0.00 0.00 0.00 47 990.3
20260504174713 70 209 11.0 18.0 0.00 0.00 0.00 45 990.4
20260504173713 69 214 14.0 20.0 0.00 0.00 0.00 45 990.4
20260504172711 69 238 5.0 9.0 0.00 0.00 0.00 44 990.4
20260504171811 68 231 12.0 20.0 0.00 0.00 0.00 47 990.4
20260504170812 68 221 8.0 14.0 0.00 0.00 0.00 46 990.4
20260504151013 64 207 9.0 13.0 0.00 0.00 0.00 45 991.1
20260504141212 61 226 10.0 16.0 0.00 0.00 0.00 43 991.9
20260504140213 61 245 7.0 13.0 0.00 0.00 0.00 43 991.5
20260504130423 57 211 5.0 9.0 0.00 0.00 0.00 43 992.2
20260504110714 50 204 8.0 13.0 0.00 0.00 0.00 41 991.5
20260504081913 50 202 4.0 7.0 0.00 0.00 0.00 41 991.5
20260504080913 50 211 5.0 10.0 0.00 0.00 0.00 41 991.9
20260504070112 50 213 5.0 9.0 0.00 0.00 0.00 41 991.9
20260504050212 49 225 2.0 4.0 0.00 0.00 0.00 41 992.2
20260504045212 49 210 4.0 6.0 0.00 0.00 0.00 41 992.2
20260504044311 49 203 2.0 5.0 0.00 0.00 0.00 41 992.6
20260504043314 50 202 2.0 3.0 0.00 0.00 0.00 41 992.6
20260504042412 50 202 1.0 3.0 0.00 0.00 0.00 41 992.6
20260504041411 50 202 1.0 2.0 0.00 0.00 0.00 41 992.6
20260504040415 50 202 1.0 2.0 0.00 0.00 0.00 41 992.6
20260504035424 51 202 1.0 2.0 0.00 0.00 0.00 41 992.6
20260504033524 52 202 2.0 3.0 0.00 0.00 0.00 43 992.6
20260504032522 53 225 2.0 3.0 0.00 0.00 0.00 43 992.8
20260504031621 53 202 2.0 4.0 0.00 0.00 0.00 41 992.9
20260504030623 53 247 1.0 2.0 0.00 0.00 0.00 41 993.2
20260504025621 54 247 1.0 3.0 0.00 0.00 0.00 41 992.9
20260504024622 53 225 1.0 3.0 0.00 0.00 0.00 41 993.2
20260504023623 53 247 1.0 3.0 0.00 0.00 0.00 41 993.2
20260504022624 53 270 1.0 2.0 0.00 0.00 0.00 41 993.2
20260504021621 54 270 0.0 2.0 0.00 0.00 0.00 41 993.6
20260504020622 55 292 0.0 0.0 0.00 0.00 0.00 41 993.6
20260504015623 55 247 1.0 2.0 0.00 0.00 0.00 42 993.6
20260504014721 54 225 1.0 2.0 0.00 0.00 0.00 44 993.6
20260504013723 55 292 0.0 0.0 0.00 0.00 0.00 45 993.6
20260504011725 55 284 1.0 4.0 0.00 0.00 0.00 45 993.6
20260504010722 55 252 4.0 6.0 0.00 0.00 0.00 45 993.9
20260504005722 55 255 4.0 9.0 0.00 0.00 0.00 45 993.6
20260504004721 56 254 6.0 9.0 0.00 0.00 0.00 45 993.6
20260504003722 56 292 5.0 11.0 0.00 0.00 0.00 45 993.6
20260504001822 56 269 4.0 12.0 0.00 0.00 0.00 46 993.2
20260504000822 56 285 2.0 7.0 0.00 0.00 0.00 45 992.9
20260503235823 56 287 2.0 7.0 0.00 0.00 0.00 45 992.9
20260503233823 56 238 4.0 9.0 0.00 0.00 0.00 45 992.9
20260503230922 57 264 6.0 11.0 0.00 0.00 0.00 45 993.2
20260503230021 57 309 1.0 11.0 0.00 0.00 0.00 43 993.0
20260503225023 57 270 6.0 17.0 0.00 0.00 0.00 42 993.0
20260503224022 57 317 0.0 4.0 0.00 0.00 0.00 42 992.7
20260503221122 58 247 3.0 7.0 0.00 0.00 0.00 42 992.6
20260503220125 58 271 3.0 7.0 0.00 0.00 0.00 42 992.9
20260503215123 57 279 2.0 4.0 0.00 0.00 0.00 42 992.9
20260503213222 58 257 5.0 7.0 0.00 0.00 0.00 43 992.9
20260503212221 58 261 5.0 11.0 0.00 0.00 0.00 45 992.9
20260503210222 57 260 2.0 5.0 0.00 0.00 0.00 44 992.9
20260503205223 56 254 2.0 4.0 0.00 0.00 0.00 44 993.2
20260503204222 56 247 1.0 3.0 0.00 0.00 0.00 44 993.2
20260503203321 56 259 4.0 7.0 0.00 0.00 0.00 43 993.2
20260503202322 56 267 5.0 9.0 0.00 0.00 0.00 43 993.2
20260503200321 55 285 1.0 4.0 0.00 0.00 0.00 42 993.9
20260503195321 55 261 4.0 6.0 0.00 0.00 0.00 42 993.9
20260503193421 55 260 5.0 8.0 0.00 0.00 0.00 42 994.3
20260503191423 57 253 8.0 11.0 0.00 0.00 0.00 44 994.6
20260503190521 56 265 7.0 11.0 0.00 0.00 0.00 42 994.6